Torna al catalogo

STARLINK-35572

AttivoComunicazioniVLEO
NORAD 66117·PAYLOAD·🇺🇸 United States

Lanciato Oct 22, 2025 da Vandenberg Space Force Base

Loading…

Prossimi Passaggi (prossime 24 ore)

TLE

AggiornatoSource: CelesTrak SupGP

Epoca: Sep 14, 2026, 23:16 UTC

1 66117C 25237D   26257.96993056  .00022319  00000+0  65928-3 0  2575
2 66117  53.1575 239.4746 0001312  93.3187 271.6786 15.34385351    18

Traccia STARLINK-35572 in tempo reale con AllMySat

Download on the App Store